When you browse on this site, cookies collect data to enhance your experience and personalize the content and advertising you see.
Visit our Privacy Policy to learn more. By continuing to use the site, you agree to this use of cookies and data.

Stündliche Wetter Río Gallegos

Heute, 8 August, Samstag

Zeit Temperatur Niederschläge Wind Luftdruck Luftfeuchtigkeit
00:00 +1°C° 0 mm 3 m/S 752 mmHg 78%
01:00 +1°C° 0 mm 3 m/S 751 mmHg 82%
02:00 +1°C° 0 mm 2 m/S 750 mmHg 84%
03:00 +1°C° 0 mm 2 m/S 749 mmHg 86%
04:00 +1°C° 0 mm 2 m/S 748 mmHg 88%
05:00 0°C° 0 mm 3 m/S 748 mmHg 87%
06:00 -1°C° 0 mm 4 m/S 748 mmHg 86%
07:00 -3°C° 0 mm 6 m/S 747 mmHg 85%
08:00 -2°C° 0 mm 7 m/S 748 mmHg 80%
09:00 -1°C° 0 mm 8 m/S 748 mmHg 75%
10:00 0°C° 0 mm 9 m/S 749 mmHg 70%
11:00 0°C° 0 mm 10 m/S 750 mmHg 69%
12:00 -1°C° 0 mm 11 m/S 750 mmHg 67%
13:00 0°C° 0 mm 12 m/S 751 mmHg 66%
14:00 -1°C° 0 mm 12 m/S 751 mmHg 68%
15:00 -1°C° 0 mm 11 m/S 752 mmHg 70%
16:00 -1°C° 0 mm 11 m/S 752 mmHg 72%
17:00 -2°C° 0 mm 11 m/S 753 mmHg 74%
18:00 -2°C° 0 mm 11 m/S 754 mmHg 76%
19:00 -3°C° 0 mm 11 m/S 754 mmHg 77%
20:00 -3°C° 0 mm 10 m/S 755 mmHg 76%
21:00 -3°C° 0 mm 10 m/S 755 mmHg 75%
22:00 -3°C° 0 mm 9 m/S 756 mmHg 74%
23:00 -4°C° 0 mm 8 m/S 756 mmHg 76%

Morgen, 9 August, Sonntag

Zeit Temperatur Niederschläge Wind Luftdruck Luftfeuchtigkeit
00:00 -3°C° 0 mm 7 m/S 756 mmHg 79%
01:00 -4°C° 0 mm 5 m/S 756 mmHg 81%
02:00 -4°C° 0 mm 5 m/S 755 mmHg 78%
03:00 -4°C° 0 mm 5 m/S 755 mmHg 74%
04:00 -3°C° 0 mm 4 m/S 755 mmHg 71%
05:00 -4°C° 0 mm 5 m/S 754 mmHg 69%
06:00 -5°C° 0 mm 5 m/S 754 mmHg 66%
07:00 -5°C° 0 mm 5 m/S 753 mmHg 64%
08:00 -4°C° 0 mm 5 m/S 753 mmHg 61%
09:00 -2°C° 0 mm 5 m/S 752 mmHg 58%
10:00 -2°C° 0 mm 5 m/S 751 mmHg 55%
11:00 -1°C° 0 mm 5 m/S 750 mmHg 54%
12:00 -2°C° 0 mm 6 m/S 749 mmHg 53%
13:00 -2°C° 0 mm 6 m/S 748 mmHg 52%
14:00 -2°C° 0 mm 6 m/S 747 mmHg 54%
15:00 -1°C° 0 mm 6 m/S 747 mmHg 55%
16:00 -1°C° 0 mm 6 m/S 746 mmHg 57%
17:00 -2°C° 0 mm 7 m/S 747 mmHg 61%
18:00 -3°C° 0 mm 9 m/S 747 mmHg 65%
19:00 -3°C° 0 mm 11 m/S 747 mmHg 70%
20:00 -3°C° 0 mm 10 m/S 748 mmHg 69%
21:00 -4°C° 0 mm 9 m/S 748 mmHg 69%
22:00 -4°C° 0 mm 8 m/S 749 mmHg 68%
23:00 -4°C° 0 mm 8 m/S 748 mmHg 69%

übermorgen, 10 August, Montag

Zeit Temperatur Niederschläge Wind Luftdruck Luftfeuchtigkeit
00:00 -4°C° 0 mm 8 m/S 748 mmHg 69%
01:00 -5°C° 0 mm 8 m/S 748 mmHg 69%
02:00 -4°C° 0 mm 9 m/S 747 mmHg 66%
03:00 -4°C° 0 mm 10 m/S 747 mmHg 62%
04:00 -4°C° 0 mm 11 m/S 746 mmHg 59%
05:00 -4°C° 0.2 mm 10 m/S 746 mmHg 65%
06:00 -4°C° 0.2 mm 8 m/S 746 mmHg 71%
07:00 -4°C° 0.2 mm 7 m/S 746 mmHg 78%
08:00 -4°C° 0 mm 9 m/S 746 mmHg 69%
09:00 -4°C° 0 mm 10 m/S 746 mmHg 61%
10:00 -3°C° 0 mm 12 m/S 747 mmHg 53%
11:00 -4°C° 0.1 mm 13 m/S 747 mmHg 57%
12:00 -4°C° 0.1 mm 14 m/S 747 mmHg 60%
13:00 -2°C° 0.1 mm 14 m/S 747 mmHg 64%
14:00 -4°C° 0.4 mm 14 m/S 748 mmHg 67%
15:00 -5°C° 0.4 mm 13 m/S 749 mmHg 69%
16:00 -5°C° 0.4 mm 13 m/S 749 mmHg 72%
17:00 -5°C° 0.1 mm 13 m/S 750 mmHg 70%
18:00 -6°C° 0.1 mm 13 m/S 751 mmHg 68%
19:00 -6°C° 0.1 mm 13 m/S 752 mmHg 66%
20:00 -6°C° 0 mm 13 m/S 752 mmHg 66%
21:00 -6°C° 0 mm 13 m/S 753 mmHg 67%
22:00 -6°C° 0 mm 13 m/S 753 mmHg 67%
23:00 -6°C° 0 mm 11 m/S 753 mmHg 69%

11 August, Dienstag

Zeit Temperatur Niederschläge Wind Luftdruck Luftfeuchtigkeit
00:00 -7°C° 0 mm 10 m/S 753 mmHg 70%
01:00 -6°C° 0 mm 8 m/S 753 mmHg 72%
02:00 -6°C° 0 mm 7 m/S 753 mmHg 75%
03:00 -6°C° 0 mm 6 m/S 753 mmHg 79%
04:00 -6°C° 0 mm 5 m/S 753 mmHg 82%
05:00 -6°C° 0 mm 5 m/S 753 mmHg 85%
06:00 -5°C° 0 mm 5 m/S 753 mmHg 88%
07:00 -5°C° 0 mm 5 m/S 753 mmHg 91%
08:00 -4°C° 0.2 mm 5 m/S 752 mmHg 92%
09:00 -3°C° 0.2 mm 4 m/S 752 mmHg 93%
10:00 -1°C° 0.2 mm 3 m/S 752 mmHg 94%
11:00 -1°C° 0.1 mm 3 m/S 752 mmHg 93%
12:00 -1°C° 0.1 mm 2 m/S 752 mmHg 92%
13:00 +2°C° 0.1 mm 1 m/S 752 mmHg 91%
14:00 +2°C° 0 mm 1 m/S 752 mmHg 92%
15:00 0°C° 0 mm 0 m/S 752 mmHg 92%
16:00 0°C° 0 mm 0 m/S 752 mmHg 93%
17:00 0°C° 0 mm 0 m/S 753 mmHg 93%
18:00 0°C° 0 mm 0 m/S 753 mmHg 93%
19:00 +1°C° 0 mm 1 m/S 753 mmHg 93%
20:00 +1°C° 0 mm 1 m/S 754 mmHg 94%
21:00 -1°C° 0 mm 2 m/S 754 mmHg 94%
22:00 -1°C° 0 mm 2 m/S 755 mmHg 95%
23:00 -1°C° 0.1 mm 3 m/S 755 mmHg 93%

12 August, Mittwoch

Zeit Temperatur Niederschläge Wind Luftdruck Luftfeuchtigkeit
00:00 -2°C° 0.1 mm 4 m/S 755 mmHg 92%
01:00 -2°C° 0.1 mm 5 m/S 756 mmHg 91%
02:00 -2°C° 0 mm 5 m/S 756 mmHg 88%
03:00 -4°C° 0 mm 6 m/S 756 mmHg 86%
04:00 -4°C° 0 mm 7 m/S 756 mmHg 83%
05:00 -4°C° 0 mm 7 m/S 757 mmHg 83%
06:00 -4°C° 0 mm 6 m/S 757 mmHg 83%
07:00 -4°C° 0 mm 6 m/S 757 mmHg 83%
08:00 -4°C° 0 mm 6 m/S 757 mmHg 81%
09:00 -2°C° 0 mm 5 m/S 756 mmHg 79%
10:00 -1°C° 0 mm 5 m/S 756 mmHg 77%
11:00 -1°C° 0 mm 5 m/S 756 mmHg 79%
12:00 -2°C° 0 mm 6 m/S 756 mmHg 81%
13:00 -1°C° 0 mm 6 m/S 755 mmHg 83%
14:00 -2°C° 0 mm 6 m/S 755 mmHg 85%
15:00 -1°C° 0 mm 5 m/S 755 mmHg 87%
16:00 -1°C° 0 mm 5 m/S 755 mmHg 89%
17:00 -2°C° 0 mm 5 m/S 754 mmHg 87%
18:00 -2°C° 0 mm 5 m/S 754 mmHg 85%
19:00 -2°C° 0 mm 5 m/S 754 mmHg 83%
20:00 -2°C° 0 mm 5 m/S 753 mmHg 82%
21:00 -2°C° 0 mm 6 m/S 753 mmHg 80%
22:00 -2°C° 0 mm 7 m/S 753 mmHg 79%
23:00 -2°C° 0 mm 6 m/S 752 mmHg 78%

13 August, Donnerstag

Zeit Temperatur Niederschläge Wind Luftdruck Luftfeuchtigkeit
00:00 -2°C° 0 mm 6 m/S 752 mmHg 76%
01:00 -2°C° 0 mm 6 m/S 751 mmHg 75%
02:00 -1°C° 0 mm 5 m/S 751 mmHg 75%
03:00 -1°C° 0 mm 4 m/S 750 mmHg 74%
04:00 0°C° 0 mm 3 m/S 750 mmHg 74%
05:00 0°C° 0 mm 3 m/S 749 mmHg 75%
06:00 -1°C° 0 mm 3 m/S 749 mmHg 75%
07:00 -1°C° 0 mm 3 m/S 749 mmHg 76%
08:00 0°C° 0 mm 3 m/S 749 mmHg 80%
09:00 0°C° 0 mm 3 m/S 748 mmHg 84%
10:00 +1°C° 0 mm 3 m/S 748 mmHg 88%
11:00 +1°C° 0 mm 3 m/S 747 mmHg 89%
12:00 +2°C° 0 mm 3 m/S 747 mmHg 91%
13:00 +2°C° 0 mm 3 m/S 746 mmHg 93%
14:00 +2°C° 0 mm 3 m/S 746 mmHg 92%
15:00 +2°C° 0 mm 3 m/S 746 mmHg 92%
16:00 0°C° 0 mm 4 m/S 745 mmHg 91%
17:00 +1°C° 0 mm 3 m/S 745 mmHg 90%
18:00 +1°C° 0 mm 3 m/S 745 mmHg 89%
19:00 +1°C° 0 mm 3 m/S 744 mmHg 89%
20:00 +1°C° 0.1 mm 3 m/S 744 mmHg 89%
21:00 +1°C° 0.1 mm 3 m/S 744 mmHg 90%
22:00 0°C° 0.1 mm 4 m/S 743 mmHg 91%
23:00 +1°C° 0.5 mm 3 m/S 743 mmHg 93%
Mehr zeigen